Date,TemperatureHighF,TemperatureAvgF,TemperatureLowF,DewpointHighF,DewpointAvgF,DewpointLowF,HumidityHigh,HumidityAvg,HumidityLow,PressureMaxIn,PressureMinIn,WindSpeedMaxMPH,WindSpeedAvgMPH,GustSpeedMaxMPH,PrecipitationSumIn
2013-4-1,50,39,31,29,28,26,88,65,41,30.27,30.05,15,4,19,0.00
2013-4-2,46,40,36,28,26,24,72,58,43,30.27,30.20,11,2,19,0.00
2013-4-3,51,42,34,32,29,23,85,61,36,30.28,30.17,14,4,22,0.00
2013-4-4,66,47,30,36,32,27,90,62,30,30.21,30.06,13,3,16,0.00
2013-4-5,76,60,0,41,33,30,72,40,19,30.07,29.53,22,-6,33,0.00
2013-4-6,74,61,48,41,35,27,69,40,20,29.75,29.51,18,6,22,0.00
2013-4-7,73,61,49,51,41,29,86,51,23,29.74,29.52,14,3,30,0.00
2013-4-8,72,57,42,58,48,35,90,72,45,29.59,29.34,36,7,45,0.00
2013-4-9,54,27,18,48,25,16,94,92,78,30.25,29.40,15,6,29,0.31
2013-4-10,29,25,19,25,20,17,90,84,78,30.27,30.10,9,4,21,0.00
2013-4-11,47,31,21,30,24,18,91,77,48,30.10,29.83,15,6,23,0.01
2013-4-12,55,39,27,40,32,24,94,79,44,30.08,29.96,9,2,16,0.06
2013-4-13,69,50,32,47,39,30,95,71,38,30.08,29.31,28,9,32,0.01
2013-4-14,61,52,41,46,28,12,84,43,19,29.73,29.17,28,10,37,0.00
2013-4-15,49,40,32,27,23,-100,76,54,36,30.06,29.71,10,-10,17,0.00
2013-4-16,44,38,32,29,27,25,86,66,52,30.20,30.04,26,10,28,0.00
2013-4-17,39,34,27,32,30,26,94,86,61,30.11,29.93,12,3,22,0.00
2013-4-18,34,29,24,27,24,20,95,83,69,30.23,30.06,14,4,26,0.09
2013-4-19,60,41,24,37,28,19,84,63,33,30.20,30.03,17,7,26,0.00
2013-4-20,59,44,31,37,32,27,87,65,37,30.07,29.94,20,6,23,0.00
2013-4-21,69,52,34,42,37,31,92,61,29,30.04,29.93,15,3,19,0.00
2013-4-22,51,39,29,45,37,26,97,92,73,30.36,29.85,19,4,23,0.30
2013-4-23,44,32,26,29,24,20,94,75,43,30.39,30.24,8,1,14,0.06
2013-4-24,59,42,25,29,24,18,85,55,22,30.32,30.17,17,4,28,0.00
2013-4-25,71,53,33,35,28,24,72,43,20,30.28,29.87,29,10,39,0.00
2013-4-26,78,61,44,47,32,25,81,38,15,30.10,29.90,17,5,23,0.00
2013-4-27,80,63,46,48,38,21,89,51,11,30.09,29.82,15,3,21,0.00
2013-4-28,87,70,49,45,33,24,70,31,10,29.84,29.60,20,7,29,0.00
2013-4-29,83,66,47,43,39,36,70,42,19,29.73,29.41,13,3,19,0.00
2013-4-30,70,61,51,43,39,25,67,47,30,29.80,29.39,15,6,26,0.00